Wind_Speed
15 14 16 7 3 4 7 12 17 20 20 21 23 21 18 17 16 15 22 26 30 27 32 29 34 39 43 46 45 44 46 45 42 38 41 41 36 41 31 27 36 39 41 44
17 12 7 4 4 10 13 14 13 17 22 24 24 12 16 18 16 19 22 26 30 30 27 26 40 44 48 46 40 41 43 43 39 41 39 37 37 36 33 36 41 44 45 46
12 8 6 4 7 11 14 12 11 18 24 21 15 16 19 24 28 22 23 30 32 24 41 36 35 43 46 46 43 41 39 39 40 44 38 36 37 40 42 44 46 46 46 45
13 6 3 4 7 11 12 14 16 17 22 16 16 21 25 21 27 22 25 31 32 35 44 36 46 51 49 43 45 44 41 40 46 41 41 37 42 48 50 48 50 51 55 60
8 5 6 7 9 13 15 15 20 15 16 14 17 24 21 18 17 20 28 31 34 36 33 45 43 44 42 43 43 43 38 40 43 41 43 49 50 51 52 53 55 60 61 61
8 10 8 9 14 12 8 13 18 20 14 16 15 19 17 18 22 28 31 34 35 42 38 41 39 44 36 43 43 40 41 39 39 44 49 51 53 55 56 58 62 63 61 59
11 11 12 14 17 14 10 13 17 15 17 19 18 17 19 27 26 30 28 33 39 40 39 41 43 43 37 30 33 38 36 41 48 50 52 54 57 59 59 62 63 62 59 55
19 18 18 19 17 8 13 13 11 13 10 11 14 18 18 28 22 31 33 30 39 45 47 50 46 42 40 37 35 37 43 47 49 52 54 56 57 57 60 61 56 55 50 51
23 24 21 19 23 12 16 14 13 16 14 17 18 25 22 25 25 28 31 36 44 50 53 50 39 43 38 33 35 39 43 46 48 50 51 52 54 56 55 51 48 46 46 45
15 21 22 21 13 9 15 20 22 13 13 17 24 26 16 21 27 26 36 39 44 49 49 41 37 32 29 33 39 42 44 46 47 49 51 53 56 54 51 46 49 44 42 41
8 13 16 19 17 14 19 19 12 19 15 18 19 21 21 23 28 33 35 40 47 45 34 37 32 31 35 39 41 43 44 47 49 51 53 56 54 51 46 48 43 41 40 39
13 16 14 12 16 18 15 19 13 10 19 19 23 23 18 20 29 30 34 44 45 29 32 30 32 36 39 41 42 44 46 49 51 51 54 54 51 47 47 43 41 40 39 36
14 16 18 17 17 21 18 18 17 18 22 24 17 16 16 23 29 31 38 44 32 30 29 32 36 40 42 43 42 47 49 50 49 51 55 50 46 45 43 41 40 39 35 32
8 14 17 17 16 17 16 17 14 18 21 19 11 17 19 22 31 38 41 31 29 29 27 31 37 40 41 42 44 48 48 48 50 53 52 48 46 43 43 41 39 34 32 28
18 20 17 16 16 20 21 17 15 15 16 14 15 21 24 26 31 37 41 27 28 24 28 34 39 41 42 44 46 48 48 49 51 53 50 47 45 44 43 40 35 32 29 26
18 22 19 17 16 22 24 22 20 21 21 20 20 25 28 29 32 35 28 25 25 25 30 35 41 41 43 45 47 48 48 48 50 53 49 47 44 44 41 36 32 32 28 25
20 16 12 18 22 23 22 23 20 20 24 23 25 23 25 29 29 36 22 22 20 25 31 36 39 43 45 46 47 46 48 48 51 52 48 45 43 41 37 34 34 32 30 22
21 19 20 25 25 20 19 18 20 22 23 24 22 26 31 30 30 26 20 18 19 26 30 34 39 43 46 46 47 47 47 48 50 50 45 42 41 39 35 34 33 30 29 21
23 20 24 24 19 15 12 16 19 17 22 22 25 29 29 28 30 20 15 14 19 26 30 34 39 44 47 47 47 46 46 47 49 48 43 41 39 38 35 34 32 29 27 22
22 20 20 16 17 15 14 18 25 25 26 26 30 31 27 25 26 17 12 17 22 26 30 35 40 43 46 46 46 46 45 44 47 47 41 40 39 37 35 34 31 28 25 22
19 19 18 17 16 14 17 21 23 25 27 32 36 34 26 21 14 12 15 19 22 26 30 34 39 43 45 46 46 45 44 43 45 45 40 39 38 35 34 33 34 33 28 22
20 19 18 19 20 20 17 22 21 26 31 33 25 16 8 7 10 12 15 18 22 25 29 34 38 42 45 44 45 45 44 43 43 44 39 38 37 34 31 33 33 33 32 25
22 21 22 20 20 21 20 21 22 28 31 29 18 12 10 10 9 11 14 19 23 25 29 34 37 41 45 44 44 44 43 42 42 44 38 37 37 34 31 31 31 30 31 25
22 25 24 22 21 22 22 20 24 27 25 18 14 10 8 9 11 14 17 20 22 25 29 33 36 39 44 44 43 43 43 41 40 42 38 35 35 33 32 32 30 29 29 24
25 27 25 22 22 23 19 21 25 21 14 14 11 8 10 12 14 16 18 20 22 26 28 32 37 40 41 43 42 42 42 41 40 39 38 34 33 32 31 30 30 28 26 25
25 29 28 26 24 22 19 21 23 10 8 5 6 8 13 14 15 17 17 20 22 26 29 32 36 39 40 41 41 41 41 40 39 37 37 34 31 31 29 29 29 28 25 23
Wind_Direction
160 155 156 147 159 37 357 349 346 343 338 324 313 303 301 305 311 310 331 326 320 322 326 326 331 346 346 346 351 345 347 342 342 345 334 329 320 338 323 318 323 320 315 312
169 187 210 135 341 345 335 316 323 319 321 319 318 313 308 315 312 317 327 333 327 333 330 328 337 339 343 343 349 341 339 341 344 336 332 330 326 326 326 324 322 318 317 313
176 184 199 233 341 323 301 291 315 318 326 310 299 308 313 308 308 308 310 323 333 341 343 335 331 335 336 336 341 341 338 338 339 338 334 334 331 332 328 322 324 320 318 316
167 175 312 311 344 298 289 302 316 303 302 287 290 297 298 321 321 302 311 335 348 342 341 337 333 329 326 331 335 344 339 334 332 334 331 333 333 332 329 329 327 325 317 314
203 255 302 320 319 310 311 319 312 310 292 292 276 293 312 311 320 333 337 359 350 346 341 331 339 348 341 330 335 336 337 334 335 336 335 335 333 333 331 326 320 319 318 318
203 236 248 288 308 312 320 314 321 295 286 291 285 296 318 327 329 338 352 353 344 340 336 333 332 331 320 332 332 331 332 334 335 337 336 334 332 330 326 323 320 317 316 315
203 238 262 272 297 320 332 324 308 273 282 286 297 304 334 345 357 357 349 344 337 339 339 338 342 345 342 329 329 328 335 337 339 339 335 332 330 328 324 320 317 317 319 318
217 235 246 263 294 338 328 315 336 347 335 302 307 315 329 349 344 346 343 332 333 341 342 338 335 336 335 327 340 342 341 339 338 336 333 330 326 323 319 317 318 318 318 318
222 236 247 269 301 284 307 326 347 339 321 309 300 306 324 344 340 338 343 339 339 342 335 334 332 331 333 345 345 340 340 339 335 331 327 325 325 320 321 322 322 321 321 323
234 239 250 271 315 292 277 315 336 318 304 297 293 301 319 344 348 332 341 345 337 332 333 331 337 345 344 346 345 342 339 335 332 330 330 330 326 328 329 330 328 327 329 330
257 259 274 262 275 285 292 318 327 328 307 304 304 307 303 311 329 341 346 336 335 335 340 350 353 350 347 345 343 340 338 336 336 335 334 331 334 335 335 333 333 334 333 333
288 295 299 284 282 295 315 314 296 310 296 318 337 315 297 305 327 340 332 338 337 344 339 345 346 348 347 344 341 340 339 340 340 337 336 338 338 338 336 337 337 336 337 337
283 292 299 301 306 305 311 300 295 283 308 330 326 340 328 326 345 333 332 333 337 339 342 347 348 347 345 342 342 343 341 341 340 340 340 341 341 339 341 341 340 340 341 342
312 299 297 297 301 298 301 299 310 305 309 315 302 327 339 341 335 339 336 334 333 334 343 346 348 346 344 343 343 343 343 344 344 343 342 343 343 345 345 343 343 345 346 347
290 304 292 288 295 298 300 304 311 309 313 319 306 327 341 335 328 333 334 324 326 338 344 347 346 344 344 342 343 344 345 348 347 344 346 347 348 348 347 347 348 348 348 350
292 290 284 283 292 301 305 317 326 324 328 330 337 327 332 326 326 328 328 320 332 344 345 345 343 344 345 344 346 346 348 351 348 347 348 351 350 351 350 350 351 351 350 344
281 279 273 301 303 304 312 322 332 330 328 324 326 326 325 327 324 331 323 325 338 345 344 343 343 344 348 349 348 349 352 352 351 350 351 352 351 354 353 356 355 356 356 357
268 273 271 291 291 294 310 321 327 315 317 325 320 323 324 316 323 331 322 336 345 345 343 344 347 348 350 351 351 353 353 355 353 353 353 352 355 356 359 359 357 358 1 5
264 272 274 277 276 290 316 318 328 330 316 311 311 312 315 315 323 322 327 343 346 345 344 348 351 352 352 353 354 354 356 357 353 355 355 355 359 359 3 1 360 359 3 6
272 269 270 278 291 302 306 325 328 321 322 309 307 310 310 307 315 320 335 348 348 343 347 350 350 351 353 353 355 356 358 358 355 356 357 359 2 3 7 4 1 3 7 9
271 282 292 292 300 307 303 314 318 315 315 319 320 315 299 298 309 327 346 345 340 345 349 349 349 352 354 354 355 357 358 359 358 359 359 3 5 8 11 10 12 12 11 9
277 286 292 296 303 305 309 321 320 315 314 322 330 353 11 329 324 346 335 333 342 345 348 348 350 353 353 354 355 358 358 359 1 1 2 5 8 11 12 12 9 11 16 20
277 288 290 294 297 301 300 310 312 308 314 317 325 333 339 342 348 329 332 339 341 344 347 347 351 353 354 354 356 358 359 360 3 2 5 5 9 12 12 13 11 14 19 30
273 279 284 286 292 295 302 305 300 312 311 305 312 315 340 350 343 337 340 338 341 344 345 349 350 351 355 354 355 356 359 360 4 4 6 7 10 13 14 16 16 21 24 36
275 282 284 288 295 299 305 302 304 317 301 298 296 312 326 343 342 338 338 339 340 339 343 346 349 352 353 354 353 354 356 359 3 5 6 9 11 14 16 19 20 23 34 36
283 283 284 292 293 292 297 296 304 312 298 297 318 329 328 335 333 333 337 336 335 335 339 342 345 348 350 353 351 352 353 358 1 5 6 7 12 15 17 18 21 24 38 47
Height
5926 5928 5927 5928 5926 5925 5924 5925 5923 5922 5921 5920 5915 5913 5911 5908 5908 5906 5905 5903 5899 5898 5892 5886 5881 5877 5870 5860 5849 5843 5837 5835 5831 5827 5822 5817 5811 5805 5801 5795 5789 5784 5780 5776
5925 5926 5927 5926 5925 5925 5924 5925 5924 5922 5920 5915 5912 5911 5908 5905 5905 5905 5906 5901 5896 5894 5888 5883 5874 5868 5863 5856 5849 5842 5834 5829 5826 5822 5816 5808 5802 5798 5794 5787 5781 5775 5769 5763
5925 5926 5926 5925 5924 5924 5924 5923 5924 5921 5918 5914 5913 5910 5908 5904 5904 5903 5900 5894 5891 5888 5884 5877 5873 5868 5859 5849 5842 5835 5830 5824 5820 5817 5813 5804 5797 5792 5787 5780 5773 5766 5758 5752
5924 5924 5925 5924 5924 5923 5922 5921 5922 5922 5918 5915 5913 5909 5906 5905 5898 5898 5899 5894 5889 5884 5879 5872 5866 5859 5850 5842 5836 5827 5824 5818 5813 5810 5807 5800 5792 5783 5774 5766 5758 5752 5746 5739
5924 5923 5923 5924 5924 5923 5922 5920 5917 5917 5917 5914 5912 5909 5905 5903 5902 5900 5898 5892 5888 5883 5877 5870 5864 5855 5848 5842 5836 5830 5825 5819 5812 5806 5797 5789 5781 5773 5765 5759 5751 5741 5733 5723
5922 5920 5921 5923 5922 5922 5921 5919 5916 5913 5913 5912 5910 5907 5904 5903 5900 5897 5892 5889 5884 5878 5873 5866 5860 5853 5846 5842 5836 5828 5822 5814 5808 5800 5792 5784 5776 5768 5759 5750 5740 5731 5721 5713
5921 5921 5920 5921 5921 5921 5921 5918 5914 5912 5911 5909 5905 5903 5903 5899 5896 5894 5889 5885 5880 5876 5869 5862 5854 5848 5842 5838 5829 5823 5816 5808 5799 5791 5784 5776 5767 5758 5749 5740 5730 5720 5709 5700
5919 5920 5920 5920 5920 5920 5918 5917 5913 5911 5908 5906 5903 5901 5901 5897 5895 5892 5887 5882 5878 5871 5863 5857 5850 5844 5839 5831 5822 5815 5807 5801 5794 5785 5778 5770 5762 5753 5742 5731 5721 5711 5701 5691
5917 5918 5919 5918 5917 5918 5917 5915 5913 5909 5907 5905 5901 5899 5900 5896 5893 5889 5885 5880 5873 5866 5861 5853 5846 5841 5835 5829 5822 5815 5807 5799 5792 5784 5776 5768 5757 5745 5734 5723 5712 5702 5692 5682
5916 5916 5916 5916 5915 5915 5914 5914 5911 5909 5906 5904 5900 5897 5896 5894 5890 5887 5882 5874 5870 5865 5858 5851 5845 5839 5835 5828 5820 5812 5805 5797 5790 5781 5770 5759 5747 5734 5723 5712 5702 5692 5683 5673
5914 5915 5915 5914 5913 5913 5912 5911 5909 5908 5906 5902 5899 5897 5895 5893 5889 5883 5878 5873 5866 5860 5853 5846 5841 5837 5830 5823 5816 5808 5801 5793 5783 5772 5761 5748 5734 5723 5713 5703 5694 5684 5676 5668
5912 5911 5911 5910 5909 5909 5909 5906 5906 5905 5904 5901 5899 5896 5891 5889 5885 5879 5875 5868 5862 5856 5851 5846 5840 5833 5826 5819 5812 5804 5795 5784 5774 5763 5752 5738 5726 5716 5707 5697 5688 5680 5671 5664
5910 5909 5907 5906 5907 5906 5905 5903 5903 5902 5900 5898 5896 5893 5889 5885 5880 5877 5871 5865 5859 5854 5849 5843 5837 5830 5822 5815 5807 5798 5789 5779 5769 5757 5745 5733 5723 5713 5703 5693 5684 5676 5668 5661
5909 5907 5906 5906 5905 5904 5903 5901 5901 5899 5897 5896 5893 5890 5885 5881 5877 5872 5867 5862 5858 5853 5848 5843 5836 5829 5822 5814 5805 5796 5786 5776 5765 5753 5741 5731 5720 5709 5699 5690 5681 5673 5666 5660
5906 5905 5904 5902 5901 5899 5899 5899 5898 5896 5895 5893 5890 5885 5881 5878 5874 5870 5866 5860 5856 5851 5846 5840 5834 5827 5819 5811 5802 5792 5782 5772 5761 5750 5738 5726 5715 5706 5696 5687 5679 5673 5666 5660
5903 5902 5901 5900 5899 5897 5895 5894 5893 5891 5889 5886 5883 5881 5878 5875 5870 5868 5862 5858 5854 5849 5843 5839 5832 5824 5817 5807 5797 5788 5778 5768 5758 5745 5733 5722 5713 5703 5694 5686 5679 5672 5665 5658
5899 5899 5898 5897 5895 5893 5892 5889 5887 5885 5883 5882 5880 5878 5875 5871 5867 5865 5859 5855 5852 5847 5843 5838 5831 5822 5814 5804 5794 5785 5774 5765 5754 5741 5730 5720 5712 5702 5694 5686 5679 5672 5665 5658
5896 5897 5896 5895 5893 5892 5890 5887 5884 5881 5880 5879 5876 5874 5871 5868 5864 5861 5857 5853 5850 5846 5842 5837 5828 5819 5810 5801 5791 5781 5772 5762 5751 5740 5730 5720 5711 5703 5695 5687 5680 5673 5666 5659
5893 5894 5893 5892 5891 5890 5887 5885 5883 5880 5879 5875 5873 5870 5867 5863 5861 5858 5855 5853 5849 5845 5840 5834 5825 5817 5808 5798 5789 5780 5770 5760 5750 5740 5731 5721 5712 5704 5696 5688 5681 5674 5667 5661
5888 5890 5890 5888 5886 5885 5883 5881 5878 5876 5874 5871 5867 5864 5861 5858 5856 5853 5853 5850 5846 5843 5837 5830 5823 5815 5806 5797 5788 5778 5769 5761 5751 5742 5732 5723 5713 5705 5698 5690 5683 5676 5669 5663
5884 5884 5885 5884 5884 5883 5881 5880 5876 5873 5871 5865 5860 5854 5851 5851 5851 5850 5849 5847 5845 5840 5834 5828 5821 5814 5805 5796 5787 5778 5770 5762 5753 5743 5732 5724 5715 5707 5700 5693 5686 5678 5671 5664
5880 5881 5881 5881 5880 5879 5878 5876 5874 5869 5863 5860 5856 5851 5849 5849 5849 5848 5848 5846 5842 5838 5833 5827 5820 5812 5804 5795 5787 5778 5770 5762 5754 5744 5734 5725 5717 5709 5703 5696 5689 5682 5674 5667
5875 5877 5876 5877 5876 5875 5874 5872 5869 5864 5860 5856 5854 5852 5850 5848 5848 5848 5846 5842 5839 5835 5831 5825 5818 5811 5803 5795 5786 5778 5771 5763 5755 5745 5736 5728 5720 5712 5706 5699 5693 5686 5679 5672
5870 5870 5871 5872 5872 5870 5869 5868 5865 5861 5856 5853 5852 5851 5849 5849 5848 5845 5842 5840 5837 5833 5829 5823 5817 5810 5802 5793 5786 5778 5770 5763 5755 5747 5739 5731 5722 5715 5709 5702 5696 5690 5684 5678
5866 5865 5865 5866 5866 5864 5864 5861 5859 5857 5853 5851 5849 5848 5846 5845 5844 5842 5840 5837 5834 5831 5827 5822 5816 5809 5801 5793 5786 5778 5771 5763 5756 5749 5741 5733 5726 5719 5712 5706 5701 5695 5689 5685
5861 5858 5858 5859 5859 5858 5858 5856 5854 5853 5851 5849 5847 5845 5843 5843 5841 5840 5838 5835 5833 5829 5824 5819 5814 5807 5801 5793 5786 5779 5771 5763 5757 5751 5743 5736 5729 5722 5715 5710 5705 5700 5694 5690